| time (UTC) | temp F | wind direction | speed MPH | gust MPH | rain 1hr in | rain 24hr in | rain mn in | humidity % | barometer mb |
| 20260906203036 | 91 | 181 | 9.0 | 0.0 | 0.00 | 0.00 | 0.00 | 35 | 1001.5 |
| 20260906201536 | 90 | 118 | 9.0 | 0.0 | 0.00 | 0.00 | 0.00 | 38 | 1001.5 |
| 20260906200050 | 89 | 150 | 9.0 | 0.0 | 0.00 | 0.00 | 0.00 | 39 | 1001.9 |
| 20260906194615 | 89 | 103 | 7.0 | 0.0 | 0.00 | 0.00 | 0.00 | 38 | 1002.0 |
| 20260906193021 | 89 | 165 | 5.0 | 0.0 | 0.00 | 0.00 | 0.00 | 37 | 1002.2 |
| 20260906191542 | 88 | 189 | 8.0 | 0.0 | 0.00 | 0.00 | 0.00 | 39 | 1002.6 |
| 20260906190046 | 88 | 182 | 8.0 | 0.0 | 0.00 | 0.00 | 0.00 | 38 | 1003.0 |
| 20260906184550 | 87 | 106 | 8.0 | 0.0 | 0.00 | 0.00 | 0.00 | 40 | 1003.0 |
| 20260906183018 | 87 | 134 | 8.0 | 0.0 | 0.00 | 0.00 | 0.00 | 41 | 1003.3 |
| 20260906181542 | 85 | 151 | 9.0 | 0.0 | 0.00 | 0.00 | 0.00 | 45 | 1003.8 |
| 20260906180019 | 85 | 178 | 8.0 | 0.0 | 0.00 | 0.00 | 0.00 | 46 | 1003.8 |
| 20260906174554 | 85 | 162 | 7.0 | 0.0 | 0.00 | 0.00 | 0.00 | 47 | 1004.4 |
| 20260906173053 | 84 | 144 | 6.0 | 0.0 | 0.00 | 0.00 | 0.00 | 48 | 1004.6 |
| 20260906171604 | 84 | 154 | 7.0 | 0.0 | 0.00 | 0.00 | 0.00 | 50 | 1004.7 |
| 20260906170057 | 83 | 168 | 6.0 | 0.0 | 0.00 | 0.00 | 0.00 | 53 | 1005.0 |
| 20260906164553 | 82 | 121 | 6.0 | 0.0 | 0.00 | 0.00 | 0.00 | 51 | 1005.3 |
| 20260906163008 | 81 | 55 | 6.0 | 0.0 | 0.00 | 0.00 | 0.00 | 54 | 1005.2 |
| 20260906161515 | 80 | 131 | 6.0 | 0.0 | 0.00 | 0.00 | 0.00 | 57 | 1005.4 |
| 20260906160048 | 79 | 121 | 5.0 | 0.0 | 0.00 | 0.00 | 0.00 | 59 | 1005.3 |
| 20260906154543 | 77 | 94 | 6.0 | 0.0 | 0.00 | 0.00 | 0.00 | 65 | 1005.5 |
| 20260906153046 | 76 | 79 | 8.0 | 0.0 | 0.00 | 0.00 | 0.00 | 69 | 1005.5 |
| 20260906151509 | 75 | 117 | 6.0 | 0.0 | 0.00 | 0.00 | 0.00 | 73 | 1005.9 |
| 20260906150053 | 73 | 130 | 7.0 | 0.0 | 0.00 | 0.00 | 0.00 | 76 | 1005.7 |
| 20260906144609 | 72 | 110 | 7.0 | 0.0 | 0.00 | 0.00 | 0.00 | 79 | 1005.8 |
| 20260906143003 | 70 | 104 | 7.0 | 0.0 | 0.00 | 0.00 | 0.00 | 84 | 1005.8 |
| 20260906141536 | 69 | 117 | 5.0 | 0.0 | 0.00 | 0.00 | 0.00 | 88 | 1005.9 |
| 20260906140040 | 68 | 111 | 6.0 | 0.0 | 0.00 | 0.00 | 0.00 | 90 | 1005.5 |
| 20260906134544 | 67 | 89 | 3.0 | 0.0 | 0.00 | 0.00 | 0.00 | 90 | 1005.3 |
| 20260906133055 | 67 | 131 | 4.0 | 0.0 | 0.00 | 0.00 | 0.00 | 90 | 1005.2 |
| 20260906131547 | 67 | 127 | 6.0 | 0.0 | 0.00 | 0.00 | 0.00 | 90 | 1005.4 |
| 20260906130055 | 66 | 107 | 5.0 | 0.0 | 0.00 | 0.00 | 0.00 | 90 | 1004.9 |
| 20260906124556 | 66 | 66 | 6.0 | 0.0 | 0.00 | 0.00 | 0.00 | 89 | 1004.9 |
| 20260906123005 | 67 | 93 | 6.0 | 0.0 | 0.00 | 0.00 | 0.00 | 89 | 1004.9 |
| 20260906121535 | 67 | 85 | 5.0 | 0.0 | 0.00 | 0.00 | 0.00 | 89 | 1005.0 |
| 20260906120101 | 66 | 102 | 4.0 | 0.0 | 0.00 | 0.00 | 0.00 | 89 | 1004.5 |
| 20260906114535 | 66 | 42 | 7.0 | 0.0 | 0.00 | 0.00 | 0.00 | 88 | 1004.7 |
| 20260906113027 | 66 | 114 | 8.0 | 0.0 | 0.00 | 0.00 | 0.00 | 87 | 1004.6 |
| 20260906111554 | 67 | 58 | 6.0 | 0.0 | 0.00 | 0.00 | 0.00 | 86 | 1004.8 |
| 20260906110058 | 67 | 76 | 7.0 | 0.0 | 0.00 | 0.00 | 0.00 | 85 | 1004.0 |
| 20260906104514 | 67 | 56 | 5.0 | 0.0 | 0.00 | 0.00 | 0.00 | 83 | 1004.0 |
| 20260906103006 | 68 | 55 | 6.0 | 0.0 | 0.00 | 0.00 | 0.00 | 82 | 1003.8 |
| 20260906101518 | 69 | 48 | 6.0 | 0.0 | 0.00 | 0.00 | 0.00 | 79 | 1003.4 |
| 20260906100047 | 70 | 20 | 5.0 | 0.0 | 0.00 | 0.00 | 0.00 | 76 | 1003.3 |
| 20260906094608 | 71 | 28 | 5.0 | 0.0 | 0.00 | 0.00 | 0.00 | 75 | 1002.7 |
| 20260906093014 | 73 | 350 | 4.0 | 0.0 | 0.00 | 0.00 | 0.00 | 70 | 1002.6 |
| 20260906091505 | 73 | 333 | 3.0 | 0.0 | 0.00 | 0.00 | 0.00 | 67 | 1002.5 |
| 20260906090043 | 73 | 325 | 3.0 | 0.0 | 0.00 | 0.00 | 0.00 | 67 | 1002.5 |
| 20260906084541 | 73 | 313 | 5.0 | 0.0 | 0.00 | 0.00 | 0.00 | 67 | 1002.7 |
| 20260906083039 | 73 | 207 | 3.0 | 0.0 | 0.00 | 0.00 | 0.00 | 67 | 1002.0 |
| 20260906081517 | 73 | 205 | 3.0 | 0.0 | 0.00 | 0.00 | 0.00 | 65 | 1001.7 |
| 20260906080009 | 73 | 213 | 2.0 | 0.0 | 0.00 | 0.00 | 0.00 | 66 | 1002.0 |
| 20260906074524 | 73 | 128 | 1.0 | 0.0 | 0.00 | 0.00 | 0.00 | 67 | 1002.3 |
| 20260906073053 | 73 | 124 | 2.0 | 0.0 | 0.00 | 0.00 | 0.00 | 67 | 1002.2 |
| 20260906071557 | 73 | 150 | 2.0 | 0.0 | 0.00 | 0.00 | 0.00 | 67 | 1002.1 |
| 20260906070030 | 73 | 205 | 2.0 | 0.0 | 0.00 | 0.00 | 0.00 | 67 | 1002.5 |
| 20260906064553 | 73 | 175 | 2.0 | 0.0 | 0.00 | 0.00 | 0.00 | 66 | 1002.6 |
| 20260906063057 | 73 | 121 | 2.0 | 0.0 | 0.00 | 0.00 | 0.00 | 66 | 1002.7 |
| 20260906061506 | 73 | 99 | 2.0 | 0.0 | 0.00 | 0.00 | 0.00 | 66 | 1002.3 |
| 20260906060010 | 73 | 127 | 3.0 | 0.0 | 0.00 | 0.00 | 0.00 | 65 | 1002.0 |
| 20260906054525 | 74 | 133 | 2.0 | 0.0 | 0.00 | 0.00 | 0.00 | 65 | 1001.7 |
| 20260906053031 | 74 | 140 | 2.0 | 0.0 | 0.00 | 0.00 | 0.00 | 64 | 1001.6 |
| 20260906051553 | 75 | 131 | 2.0 | 0.0 | 0.00 | 0.00 | 0.00 | 62 | 1001.6 |
| 20260906050115 | 75 | 141 | 2.0 | 0.0 | 0.00 | 0.00 | 0.00 | 62 | 1001.5 |
| 20260906044533 | 76 | 185 | 2.0 | 0.0 | 0.00 | 0.00 | 0.00 | 60 | 1001.6 |
| 20260906043056 | 76 | 152 | 2.0 | 0.0 | 0.00 | 0.00 | 0.00 | 59 | 1001.6 |
| 20260906041549 | 77 | 126 | 2.0 | 0.0 | 0.00 | 0.00 | 0.00 | 58 | 1001.6 |
| 20260906040015 | 77 | 145 | 2.0 | 0.0 | 0.00 | 0.00 | 0.00 | 57 | 1002.0 |
| 20260906034519 | 78 | 138 | 2.0 | 0.0 | 0.00 | 0.00 | 0.00 | 56 | 1002.1 |
| 20260906033101 | 79 | 128 | 2.0 | 0.0 | 0.00 | 0.00 | 0.00 | 55 | 1001.8 |
| 20260906033002 | 79 | 147 | 2.0 | 0.0 | 0.00 | 0.00 | 0.00 | 54 | 1001.8 |
| 20260906031509 | 79 | 161 | 3.0 | 0.0 | 0.00 | 0.00 | 0.00 | 52 | 1001.8 |
| 20260906030011 | 81 | 121 | 3.0 | 0.0 | 0.00 | 0.00 | 0.00 | 51 | 1002.2 |
| 20260906024504 | 81 | 109 | 3.0 | 0.0 | 0.00 | 0.00 | 0.00 | 50 | 1001.7 |
| 20260906023029 | 82 | 111 | 3.0 | 0.0 | 0.00 | 0.00 | 0.00 | 48 | 1001.4 |
| 20260906021531 | 83 | 118 | 3.0 | 0.0 | 0.00 | 0.00 | 0.00 | 47 | 1001.1 |
| 20260906020048 | 84 | 107 | 2.0 | 0.0 | 0.00 | 0.00 | 0.00 | 45 | 1001.8 |
| 20260906014544 | 85 | 162 | 1.0 | 0.0 | 0.00 | 0.00 | 0.00 | 43 | 1001.7 |
| 20260906013042 | 86 | 165 | 1.0 | 0.0 | 0.00 | 0.00 | 0.00 | 42 | 1001.5 |
| 20260906011512 | 87 | 102 | 1.0 | 0.0 | 0.00 | 0.00 | 0.00 | 40 | 1001.3 |
| 20260906010016 | 88 | 142 | 2.0 | 0.0 | 0.00 | 0.00 | 0.00 | 39 | 1001.6 |
| 20260906004540 | 88 | 205 | 2.0 | 0.0 | 0.00 | 0.00 | 0.00 | 37 | 1001.0 |
| 20260906003046 | 89 | 117 | 3.0 | 0.0 | 0.00 | 0.00 | 0.00 | 36 | 1000.8 |
| 20260906001503 | 89 | 198 | 4.0 | 0.0 | 0.00 | 0.00 | 0.00 | 35 | 1000.5 |
| 20260906000006 | 90 | 175 | 4.0 | 0.0 | 0.00 | 0.00 | 0.00 | 35 | 1000.5 |
| 20260905234525 | 91 | 135 | 4.0 | 0.0 | 0.00 | 0.00 | 0.00 | 31 | 1000.6 |
| 20260905233050 | 93 | 179 | 5.0 | 0.0 | 0.00 | 0.00 | 0.00 | 29 | 1000.3 |
| 20260905231553 | 96 | 181 | 6.0 | 0.0 | 0.00 | 0.00 | 0.00 | 26 | 1000.1 |
| 20260905230055 | 96 | 181 | 5.0 | 0.0 | 0.00 | 0.00 | 0.00 | 25 | 999.7 |
| 20260905224558 | 96 | 151 | 7.0 | 0.0 | 0.00 | 0.00 | 0.00 | 26 | 999.5 |
| 20260905223052 | 96 | 151 | 6.0 | 0.0 | 0.00 | 0.00 | 0.00 | 28 | 999.4 |
| 20260905221550 | 96 | 142 | 6.0 | 0.0 | 0.00 | 0.00 | 0.00 | 27 | 999.5 |
| 20260905220020 | 96 | 120 | 5.0 | 0.0 | 0.00 | 0.00 | 0.00 | 28 | 999.6 |
| 20260905214523 | 96 | 203 | 6.0 | 0.0 | 0.00 | 0.00 | 0.00 | 27 | 999.6 |
| 20260905213021 | 96 | 148 | 6.0 | 0.0 | 0.00 | 0.00 | 0.00 | 27 | 999.7 |
| 20260905211546 | 95 | 127 | 7.0 | 0.0 | 0.00 | 0.00 | 0.00 | 28 | 1000.0 |
| 20260905210056 | 95 | 102 | 6.0 | 0.0 | 0.00 | 0.00 | 0.00 | 28 | 1000.3 |
| 20260905204543 | 94 | 178 | 6.0 | 0.0 | 0.00 | 0.00 | 0.00 | 30 | 1000.6 |